Location: Avully
(45.9633°N, 6.0228°E)
Time: 20:10:09
(UTC+00:00)

Cosmos 1741 Rocket - Pass Details

Date: 23 May 2024
Orbit: 758 x 781 km, 74.0° (Epoch: 14 June)

Event Time Altitude Azimuth Distance (km) Brightness Sun altitude
Exits shadow 01:51:21 27° 214° (SW) 1,425 4.8 -16.3°
Maximum altitude 01:54:11 71° 293° (WNW) 811 4.0 -16.1°
Drops below altitude 10° 01:59:27 10° 18° (NNE) 2,322 7.7 -15.5°
Sets 02:01:52 0° 21° (NNE) 3,256 8.8 -15.3°
